Location: Holiday Acres Laynes 2 Mobile Home Park
(26.7249°N, 81.8671°W)
Time: 12:51:26
(UTC+00:00)

Cosmos 1515 Rocket - Pass Details

Date: 25 November 2020
Orbit: 605 x 631 km, 82.5° (Epoch: 24 January)

Event Time Altitude Azimuth Distance (km) Brightness Sun altitude
Rises 23:32:49 0° 174° (S) 2,849 7.1 -13.1°
Reaches altitude 10° 23:35:04 10° 169° (SSE) 1,951 6.2 -13.6°
Maximum altitude 23:39:15 51° 93° (E) 767 3.6 -14.5°
Drops below altitude 10° 23:43:29 10° 17° (NNE) 1,974 5.8 -15.4°
Enters shadow 23:43:54 - 16° (NNE) 2,137 6.0 -15.5°
